www.pogodaiklimat.ru

Погода и климат >> Архив погоды >> Ирландия >> Sherkin Island


ПОГОДА в Sherkin Island

  • Прогноз погоды в Sherkin Island
  • Монитор погоды в Sherkin Island
  • Климат города

АРХИВ ПОГОДЫ в Sherkin Island

Время (UTC), дата Ветер
(напр.,м/с)
 
Видим.   Явления Облачность Т
(С)
Тd
(С)
f
(%)
Тe
(С)
Тes
(С)
Комфортность P
(гПа)
Po
(гПа)
Тmin
(С)
Tmax
(С)
R
(мм)
R24
(мм)
S
(см)
22 13.09 З 6 28 км н/о +13.3 +11.0 86 +11 +11 1022.6 1020.0
23 13.09 ЮЗ 6 40 км н/о +13.4 +11.0 85 +11 +11 1022.2 1019.6
00 14.09 ЮЗ 6 35 км н/о +13.7 +11.3 85 +12 +12 1021.8 1019.2
02 14.09 ЮЗ 6 30 км н/о +13.5 +11.2 86 +11 +11 1020.7 1018.1
01 14.09 ЮЗ 6 40 км н/о +13.6 +11.2 85 +11 +11 1021.4 1018.7
03 14.09 ЮЗ 7 35 км н/о +13.6 +11.2 85 +11 +11 1020.3 1017.7
04 14.09 ЮЗ 7 27 км н/о +13.8 +11.4 85 +11 +11 1020.0 1017.4
05 14.09 ЮЗ 8 24 км н/о +13.9 +11.6 86 +11 +11 1019.6 1017.0
06 14.09 ЮЗ 8 22 км н/о +14.0 +11.6 85 +11 +11 1019.6 1017.0 +13.2
08 14.09 З 10 18 км в посл. час морось {ливн. осадки} н/о +13.2 +11.2 88 +10 +10 1019.9 1017.3
07 14.09 ЮЗ 9 22 км н/о +14.2 +11.7 85 +12 +12 1019.6 1017.0
09 14.09 З 8 16 км {ливн. осадки} н/о +13.8 +11.8 88 +11 +11 1020.3 1017.7
10 14.09 З 6 3300 м слаб. ливневой дождь н/о +13.4 +12.1 92 +11 +11 1020.8 1018.2
11 14.09 З 5 21 км в посл. час морось н/о +14.2 +13.1 93 +12 +12 1020.9 1018.3
12 14.09 З 7 28 км {ливн. осадки, морось} н/о +15.4 +13.3 87 +14 +14 1021.1 1018.5 1
14 14.09 ЮЗ 8 17 км н/о +15.1 +12.6 85 +13 +13 1021.2 1018.6
13 14.09 З 6 24 км н/о +15.2 +12.5 84 +14 +14 1021.2 1018.6
15 14.09 З 7 18 км н/о +15.6 +12.9 84 +14 +14 1021.3 1018.7
16 14.09 З 8 21 км н/о +14.8 +12.2 84 +13 +13 1021.4 1018.8
17 14.09 З 6 15 км н/о +14.4 +12.1 86 +12 +12 1021.5 1018.9
18 14.09 З 6 13 км н/о +14.2 +12.1 87 +12 +12 1021.6 1019.0 +16.4 1
20 14.09 З 5 12 км н/о +13.4 +11.9 91 +11 +11 1022.6 1020.0
19 14.09 З 6 14 км н/о +13.9 +12.3 90 +12 +12 1022.0 1019.4
21 14.09 ЮЗ 5 13 км н/о +13.5 +12.0 91 +11 +11 1022.6 1020.0
22 14.09 ЮЗ 4 18 км н/о +13.8 +12.1 89 +12 +12 1022.6 1020.0
23 14.09 З 4 18 км н/о +13.6 +12.0 90 +12 +12 1022.6 1020.0
00 15.09 ЮЗ 5 16 км н/о +13.5 +12.0 91 +11 +11 1022.6 1020.0
02 15.09 ЮЗ 6 21 км н/о +14.0 +12.3 89 +12 +12 1022.0 1019.4
01 15.09 ЮЗ 4 20 км н/о +13.5 +12.0 91 +12 +12 1022.4 1019.8
03 15.09 ЮЗ 6 19 км н/о +13.9 +12.3 90 +12 +12 1021.9 1019.3
04 15.09 ЮЗ 6 21 км н/о +13.9 +12.4 91 +12 +12 1022.0 1019.4
05 15.09 ЮЗ 5 19 км н/о +14.0 +12.5 91 +12 +12 1021.8 1019.2
06 15.09 ЮЗ 5 20 км н/о +14.0 +12.5 91 +12 +12 1021.8 1019.2 +13.3
08 15.09 ЮЗ 5 21 км н/о +14.5 +12.8 90 +13 +13 1021.9 1019.3
07 15.09 ЮЗ 4 21 км н/о +14.2 +12.6 90 +13 +13 1022.0 1019.4
09 15.09 Ю 6 29 км н/о +14.8 +13.2 90 +13 +13 1021.5 1018.9
10 15.09 Ю 7 30 км н/о +16.0 +12.9 82 +14 +14 1021.5 1018.9
11 15.09 Ю 8 30 км н/о +15.4 +13.1 86 +13 +13 1021.4 1018.8
12 15.09 Ю 6 35 км н/о +16.3 +13.3 82 +15 +15 1020.7 1018.1 0.1
14 15.09 Ю 7 30 км н/о +17.1 +13.3 78 +16 +16 1019.6 1017.0
13 15.09 Ю 7 30 км н/о +16.9 +12.7 76 +16 +16 1020.1 1017.6
15 15.09 Ю 8 30 км н/о +16.1 +12.7 80 +14 +14 1018.6 1016.0
16 15.09 Ю 9 25 км н/о +15.3 +12.6 84 +13 +13 1017.5 1014.9
17 15.09 Ю 11 7000 м слаб. ливневой дождь н/о +14.5 +13.1 91 +12 +12 1016.1 1013.5
18 15.09 Ю 11 3500 м слаб. ливневой дождь н/о +14.5 +13.6 94 +12 +12 1015.1 1012.5 +17.4 0.6
20 15.09 Ю 13 11 км н/о +15.5 +14.0 91 +13 +13 1014.1 1011.5
19 15.09 Ю 12 12 км в посл. час морось н/о +14.8 +13.7 93 +12 +12 1014.5 1011.9
21 15.09 Ю 12 10 км {морось} н/о +15.6 +14.2 91 +13 +13 1013.6 1011.0
22 15.09 Ю 13 8000 м дымка н/о +15.4 +14.4 94 +13 +13 1013.0 1010.4
23 15.09 ЮЗ 11 5000 м дымка н/о +15.3 +14.5 95 +13 +13 1012.7 1010.1
00 16.09 Ю 10 3200 м слаб. ливневой дождь {морось} н/о +15.3 +14.7 96 +13 +13 1012.0 1009.4 0.7
02 16.09 ЮЗ 9 2500 м морось н/о +15.7 +15.2 97 +14 +14 1011.5 1008.9
01 16.09 ЮЗ 11 3500 м в посл. час морось н/о +15.5 +15.0 97 +13 +13 1011.6 1009.0
03 16.09 З 5 12 км в посл. час морось н/о +13.6 +13.1 97 +12 +12 1012.1 1009.5
04 16.09 З 6 15 км н/о +13.3 +12.5 95 +11 +11 1012.4 1009.8
05 16.09 З 5 23 км н/о +13.3 +11.7 90 +11 +11 1012.8 1010.2
06 16.09 З 4 17 км {морось} н/о +13.0 +11.0 88 +11 +11 1013.4 1010.9 +13.0 2
08 16.09 З 4 17 км н/о +13.9 +12.1 89 +12 +12 1014.5 1011.9
07 16.09 З 3 16 км н/о +12.9 +11.0 88 +11 +11 1013.9 1011.3
09 16.09 З 4 22 км н/о +14.5 +12.5 88 +13 +13 1014.9 1012.3
10 16.09 ЮЗ 5 23 км н/о +14.7 +12.1 84 +13 +13 1015.4 1012.8
11 16.09 З 6 30 км н/о +14.9 +12.2 84 +13 +13 1015.6 1013.0
12 16.09 ЮЗ 5 27 км н/о +15.2 +12.4 83 +14 +14 1015.5 1012.9
14 16.09 ЮЗ 5 30 км н/о +15.6 +12.6 82 +14 +14 1015.5 1012.9
13 16.09 З 5 30 км н/о +15.3 +12.4 83 +14 +14 1015.4 1012.8
15 16.09 ЮЗ 5 28 км н/о +15.9 +12.3 79 +15 +15 1015.3 1012.8
16 16.09 ЮЗ 5 30 км н/о +15.7 +12.5 81 +15 +15 1015.4 1012.8
17 16.09 ЮЗ 5 30 км н/о +14.6 +12.3 86 +13 +13 1015.4 1012.8
18 16.09 ЮЗ 5 30 км н/о +15.1 +12.1 82 +14 +14 1015.2 1012.6 +16.2
20 16.09 ЮЗ 3 27 км н/о +13.6 +11.9 89 +12 +12 1015.5 1012.9
19 16.09 ЮЗ 3 24 км н/о +13.8 +12.1 89 +13 +13 1015.3 1012.7
21 16.09 Ю 3 15 км н/о +12.9 +11.6 92 +11 +11 1015.3 1012.7
22 16.09 ЮЗ 2 18 км н/о +13.0 +11.9 93 +12 +12 1015.1 1012.5
23 16.09 Ю 3 40 км н/о +13.2 +12.0 92 +12 +12 1014.2 1011.6
00 17.09 Ю 5 45 км н/о +13.6 +12.0 90 +12 +12 1013.5 1010.9
02 17.09 Ю 6 40 км н/о +14.0 +11.7 86 +12 +12 1012.0 1009.4
01 17.09 Ю 5 50 км н/о +13.9 +12.0 88 +12 +12 1012.9 1010.4
03 17.09 Ю 6 50 км н/о +14.2 +11.6 84 +12 +12 1011.1 1008.5
04 17.09 ЮВ 6 4500 м слаб. дождь {дымка} н/о +13.8 +12.4 91 +12 +12 1009.5 1006.9
05 17.09 ЮВ 6 6000 м слаб. ливневой дождь н/о +14.0 +13.4 96 +12 +12 1008.4 1005.8
06 17.09 Ю 10 4100 м дымка {ливн. осадки} н/о +15.3 +14.8 97 +13 +13 1007.3 1004.7 +12.8 1
08 17.09 Ю 10 11 км в посл. час туман н/о +16.0 +15.5 97 +14 +14 1006.0 1003.4
07 17.09 Ю 10 500 м туман ?/? +15.8 +15.4 97 +14 +14 1006.8 1004.2
09 17.09 Ю 10 11 км {туман} н/о +16.3 +15.7 96 +14 +14 1005.2 1002.7
10 17.09 Ю 12 13 км н/о +16.8 +15.7 93 +15 +15 1004.1 1001.6
11 17.09 Ю 13 12 км н/о +17.1 +15.9 93 +15 +15 1003.2 1000.7
12 17.09 Ю 13
{18}
12 км {туман} н/о +17.4 +15.8 90 +16 +16 1002.4 999.9 0.1
14 17.09 Ю 12 11 км н/о +17.1 +15.5 90 +15 +15 1000.7 998.2
13 17.09 Ю 12
{18}
11 км н/о +17.3 +15.6 90 +16 +16 1001.9 999.4
15 17.09 Ю 10 6000 м слаб. ливневой дождь н/о +16.4 +15.3 93 +15 +15 999.6 997.0
16 17.09 Ю 8 9000 м дымка н/о +16.2 +15.1 93 +15 +15 998.4 995.9
17 17.09 ЮВ 8 10 км н/о +16.4 +15.0 91 +15 +15 997.0 994.4
18 17.09 ЮВ 8 4300 м слаб. дождь {ливн. осадки} н/о +16.2 +15.3 94 +15 +15 995.1 992.6 +17.8 0.4
20 17.09 ЮВ 7 3400 м слаб. ливневой дождь н/о +16.0 +15.4 96 +14 +14 992.6 990.1
19 17.09 ЮВ 9 4500 м слаб. ливневой дождь н/о +16.2 +15.5 96 +14 +14 993.6 991.0
21 17.09 ЮВ 4 2300 м морось {ливн. осадки, дождь} н/о +15.6 +15.2 97 +15 +15 991.9 989.4
22 17.09 З 2 1400 м в посл. час морось ?/? +15.6 +15.2 97 +15 +15 992.0 989.5
23 17.09 З 7 700 м туман н/о +15.2 +14.8 97 +13 +13 993.0 990.4
00 18.09 З 10 4300 м в посл. час туман {ливн. осадки, дождь} н/о +15.2 +14.8 97 +13 +13 994.5 992.0 5
02 18.09 З 12 8000 м дымка н/о +13.6 +13.0 96 +10 +10 997.7 995.1
01 18.09 З 11 6000 м дымка н/о +14.3 +13.8 97 +11 +11 996.0 993.4
03 18.09 З 12 5000 м дымка н/о +13.1 +12.4 96 +9 +9 999.3 996.7
04 18.09 З 9 14 км н/о +13.3 +11.3 88 +10 +10 1000.5 997.9
05 18.09 З 8 17 км н/о +13.6 +11.1 85 +11 +11 1001.1 998.5
06 18.09 ЮЗ 4 10 км в посл. час морось {ливн. осадки, дымка} н/о +13.7 +11.7 88 +12 +12 1001.1 998.5 +12.6 5
08 18.09 ЮЗ 10 7000 м в посл. час морось {ливн. осадки} н/о +15.3 +14.4 94 +13 +13 1000.3 997.8
07 18.09 Ю 6 6000 м слаб. ливневой дождь н/о +14.0 +12.9 93 +12 +12 1000.8 998.2
09 18.09 ЮЗ 12 9000 м дымка {ливн. осадки} н/о +16.2 +14.4 89 +14 +14 1001.2 998.6
10 18.09 ЮЗ 10 5000 м дымка н/о +16.1 +14.5 90 +14 +14 1001.7 999.2
11 18.09 ЮЗ 11 6000 м дымка н/о +16.6 +14.5 87 +15 +15 1002.0 999.5
12 18.09 ЮЗ 9 11 км {ливн. осадки, дымка} н/о +16.5 +13.5 82 +15 +15 1002.2 999.6 0.7
14 18.09 ЮЗ 9 14 км н/о +16.2 +13.0 81 +14 +14 1003.0 1000.5
13 18.09 ЮЗ 9 12 км н/о +16.6 +13.4 81 +15 +15 1002.7 1000.2
15 18.09 ЮЗ 7 10 км н/о +16.0 +13.0 82 +14 +14 1003.2 1000.7
16 18.09 ЮЗ 8 11 км н/о +15.9 +13.3 85 +14 +14 1003.3 1000.8
17 18.09 ЮЗ 7 12 км н/о +15.7 +12.7 82 +14 +14 1003.7 1001.1
18 18.09 ЮЗ 7 13 км н/о +15.2 +12.5 84 +13 +13 1004.2 1001.7 +17.0 0.7
20 18.09 ЮЗ 9 13 км н/о +15.3 +12.3 82 +13 +13 1004.7 1002.2
19 18.09 ЮЗ 8 13 км н/о +15.1 +12.1 82 +13 +13 1004.5 1001.9
21 18.09 ЮЗ 7 12 км н/о +15.2 +12.6 84 +13 +13 1005.0 1002.4
22 18.09 ЮЗ 7 11 км н/о +15.0 +12.5 85 +13 +13 1005.1 1002.5
23 18.09 ЮЗ 7 12 км н/о +14.6 +11.7 83 +13 +13 1005.0 1002.4
00 19.09 Ю 6 6000 м дымка н/о +14.4 +12.5 88 +12 +12 1004.2 1001.7
02 19.09 Ю 11 10 км н/о +14.8 +13.3 91 +12 +12 1002.4 999.8
01 19.09 Ю 9 9000 м дымка н/о +14.6 +13.2 91 +12 +12 1003.5 1001.0
03 19.09 Ю 12 10 км н/о +14.9 +13.1 89 +12 +12 1001.0 998.5
04 19.09 Ю 16
{20}
10 км н/о +15.2 +12.9 86 +12 +12 999.0 996.4
05 19.09 Ю 19
{23}
5000 м в посл. час морось {ливн. осадки} н/о +15.1 +13.2 88 +12 +12 997.9 995.3
06 19.09 ЮЗ 19
{25}
6000 м дымка {ливн. осадки} н/о +15.8 +13.3 85 +13 +13 997.1 994.5 +14.1 0.0
08 19.09 З 17
{25}
10 км н/о +13.6 +8.0 69 +10 +10 1001.8 999.3
07 19.09 З 18
{27}
6000 м в посл. час морось н/о +15.3 +9.9 70 +12 +12 999.3 996.7
09 19.09 З 16
{24}
10 км {морось} н/о +13.6 +7.8 68 +10 +10 1003.6 1001.1
10 19.09 З 14
{21}
11 км н/о +13.7 +8.0 68 +10 +10 1004.9 1002.3
11 19.09 З 14
{20}
12 км н/о +14.1 +8.4 69 +11 +11 1006.3 1003.7
12 19.09 З 13
{19}
13 км {морось} н/о +13.9 +7.7 66 +11 +11 1007.3 1004.7 0.1
14 19.09 З 11 13 км н/о +13.8 +8.2 69 +11 +11 1009.1 1006.6
13 19.09 З 12
{17}
12 км н/о +13.8 +8.0 68 +11 +11 1008.4 1005.9
15 19.09 З 11 12 км н/о +13.2 +8.4 73 +10 +10 1009.5 1006.9
16 19.09 ЮЗ 11
{20}
16 км н/о +13.4 +7.9 69 +10 +10 1009.7 1007.1
17 19.09 З 11 18 км н/о +13.6 +7.9 68 +11 +11 1010.1 1007.5
18 19.09 ЮЗ 10 15 км в посл. час морось {ливн. осадки} н/о +12.6 +8.2 75 +9 +9 1010.3 1007.7 +16.0 0.1
20 19.09 ЮЗ 6 11 км слаб. ливневой дождь н/о +12.2 +9.2 82 +10 +10 1010.9 1008.3
19 19.09 ЮЗ 9 15 км в посл. час морось {ливн. осадки} н/о +12.2 +8.4 78 +9 +9 1010.6 1008.0
21 19.09 ЮЗ 7 17 км {ливн. осадки} н/о +12.8 +7.5 70 +10 +10 1010.9 1008.3
22 19.09 ЮЗ 6 12 км слаб. морось н/о +12.4 +8.3 76 +10 +10 1011.1 1008.5
23 19.09 ЮЗ 5 11 км в посл. час морось {ливн. осадки} н/о +11.9 +8.9 82 +9 +9 1010.6 1008.0
00 20.09 ЮЗ 5 15 км {ливн. осадки, морось} н/о +11.8 +7.5 75 +9 +9 1010.1 1007.5 0.2
02 20.09 ЮЗ 3 12 км н/о +11.7 +8.0 78 +10 +10 1009.8 1007.2
01 20.09 ЮЗ 4 17 км н/о +11.6 +7.8 77 +9 +9 1010.0 1007.4
03 20.09 ЮЗ 3 12 км н/о +11.8 +7.9 77 +10 +10 1009.7 1007.1
04 20.09 ЮЗ 2 14 км н/о +11.7 +7.5 75 +11 +11 1008.9 1006.3
05 20.09 Ю 1 15 км н/о +11.5 +7.9 79 +11 +11 1008.4 1005.8
06 20.09 ЮВ 2 9000 м морось н/о +11.1 +8.8 86 +10 +10 1008.0 1005.4 +11.1 0.5
08 20.09 В 2 11 км слаб. дождь н/о +10.7 +9.5 92 +9 +9 1006.7 1004.1
07 20.09 В 2 14 км слаб. дождь н/о +10.9 +9.1 89 +10 +10 1007.4 1004.8
09 20.09 В 4 12 км слаб. дождь н/о +10.8 +9.9 94 +8 +8 1005.3 1002.7
10 20.09 СВ 6 16 км морось {дождь} н/о +10.5 +9.6 94 +7 +7 1003.7 1001.1
11 20.09 СВ 7 6000 м слаб. дождь н/о +10.7 +9.8 94 +7 +7 1002.7 1000.1
12 20.09 СВ 9 6000 м морось {дождь} н/о +10.7 +9.7 94 +7 +7 1000.4 997.8 11
14 20.09 СВ 8 16 км н/о +11.5 +10.2 92 +8 +8 998.6 996.0
13 20.09 СВ 8 17 км в посл. час дождь {ливн. осадки} н/о +11.1 +10.2 94 +7 +7 999.6 997.0
15 20.09 СВ 7 50 км {ливн. осадки} н/о +11.8 +10.4 91 +9 +9 997.2 994.7
16 20.09 С 7 3900 м морось н/о +11.7 +10.7 94 +8 +8 996.9 994.4
17 20.09 С 9 5000 м слаб. ливневой дождь н/о +10.6 +9.5 93 +6 +6 997.6 995.0
18 20.09 С 6 50 км в посл. час дождь {ливн. осадки, морось} н/о +10.5 +8.7 89 +7 +7 998.3 995.7 +11.9 13
20 20.09 СЗ 7 35 км слаб. дождь н/о +9.4 +7.2 86 +5 +5 1001.7 999.1
19 20.09 С 4 50 км н/о +10.4 +8.3 87 +8 +8 999.6 997.1
21 20.09 СЗ 8 50 км в посл. час морось {ливн. осадки, дождь} н/о +9.9 +7.2 83 +6 +6 1003.2 1000.6

 

Местоположение метеостанции Sherkin Island (Ирландия): широта 51.48 долгота -9.43 высота над уровнем моря 21 м.

В архиве по умолчанию представлена погода в Sherkin Island за последнюю неделю. Архивные данные за месяц целиком и за предыдущие месяцы, начиная с января 2011 года, Вы можете получить, выбрав интересующий диапазон дат из раскрывающегося списка и нажав кнопку "Ввод!".


*Определитесь, кто Вы:
робот инопланетянин человек

Внимание! Время в таблицах - всемирное. Для получения местного времени необходимо прибавить поправку, которая в Sherkin Island равна 0 ч.

Смотрите также архив погоды в соседних городах и на ближайших метеорологических станциях:

Погода в Valentia Observatory (Ирландия) (75 км)
Погода в Cork Airport (Ирландия) (77 км)
Погода в Roches Point (Ирландия) (89 км)
Погода в Shannon Airport (Ирландия) (139 км)
Погода в Gurteen (Ирландия) (198 км)
Погода в Mace Head (Ирландия) (207 км)
Погода в Johnstown Castle (Ирландия) (221 км)
Погода в Oak Park, Carlow (Ирландия) (230 км)
Погода в Claremorris (Ирландия) (250 км)
Погода в Mullingar (Ирландия) (269 км)

Пояснения к столбцам:

Ветер - указаны скорость ветра в м/с - средняя за 10 мин, порывы в срок и между сроками (в фигурных скобках) и направление, откуда дует ветер: С - северный, СВ - северо-восточный, В - восточный, ЮВ - юго-восточный, Ю - южный, ЮЗ - юго-западный, З - западный, СЗ - северо-западный.
Видимость - горизонтальная дальность видимости в метрах или километрах. При видимости от 1 до 10 км при отсутствии осадков обычно наблюдается дымка, при ухудшении видимости до 1 км и менее - туман. В сухую погоду видимость может ухудшаться дымом, пылью или мглою.
Явления - указаны атмосферные явления, наблюдавшиеся в срок или в последний час перед сроком; фигурными скобками обозначены явления, наблюдавшиеся между сроками (за 1-3 часа до срока); квадратными скобками обозначены град или гололедные отложения с указанием их диаметра в мм.
Облачность - указаны через наклонную черту общая и нижняя облачность в баллах и высота нижней границы облаков в метрах; квадратными скобками обозначены формы облаков: Ci - перистые, Cs - перисто-слоистые, Cc - перисто-кучевые, Ac - высококучевые, As - высокослоистые, Sc - слоисто-кучевые, Ns - слоисто-дождевые, Cu - кучевые, Cb - кучево-дождевые. Подробнее классификацию облаков см. в Атласе облаков (PDF).
T - Температура воздуха - температура, измеренная на высоте 2 м над землей.
Td - Температура точки росы - температура, при понижении до которой содержащийся в воздухе водяной пар достигнет насыщения.
f - Относительная влажность воздуха - влажноcть воздуха, измеренная на высоте 2 м над землей.
Te - Эффективная температура - температура, которую ощущает одетый по сезону человек в тени. Характеристика душности погоды. При расчете учитывается влияние влажности воздуха и скорости ветра на теплоощущения человека.
Tes - Эффективная температура на солнце - температура, которую ощущает человек, с поправкой на солнечный нагрев. Характеристика знойности погоды. Зависит от высоты солнца над горизонтом, облачности и скорости ветра. Ночью, в пасмурную погоду, а также при ветре 12 м/с и более поправка равна нулю.
P - Атмосферное давление - приведенное к уровню моря атмосферное давление.
Po - Атмосферное давление - измеренное на уровне метеостанции атмосферное давление.
Tmin - Минимальная температура - минимум температуры воздуха на высоте 2 м над землей.
Tmax - Максимальная температура - максимум температуры воздуха на высоте 2 м над землей.
R - Количество осадков - Количество выпавших осадков за период времени, мм. При наведении курсора мыши на число - период времени, за который выпало указанное количество осадков.
R24 - Количество осадков - Количество выпавших осадков за 24 часа, мм.
S - Снежный покров - Высота снежного покрова, см. При наведении курсора мыши на число - состояние снежного покрова и степень покрытия местности в баллах.